1494493200.58,11559,13.06,72970.8,6.41,-36.07,-38.17,0,*78
1494493201.77,11560,13.06,72978.0,6.41,-37.15,-39.47,0,*74
1494493203.06,11561,13.06,72980.5,6.43,-39.15,-41.55,0,*75
1494493204.29,11562,13.06,72982.0,6.41,-38.79,-41.29,0,*74
1494493205.52,11563,13.06,72980.8,6.43,-36.43,-38.61,0,*72
1494493206.76,11564,13.06,72984.5,6.41,-36.49,-39.29,0,*70
1494493208.01,11565,13.06,72984.3,6.41,-39.53,-41.93,0,*7B
1494493209.24,11566,13.06,72974.8,6.37,-39.79,-41.61,0,*7C
1494493210.46,11567,13.06,72980.3,6.37,-36.97,-39.29,0,*71
1494493211.69,11568,13.06,72978.0,6.39,-37.03,-39.35,0,*71
1494493212.91,11569,13.06,72976.3,6.37,-38.05,-40.41,0,*7A
1494493214.16,11570,13.06,72972.0,6.37,-39.71,-42.05,0,*72
1494493215.39,11571,13.06,72964.0,6.37,-39.91,-42.05,0,*7D
1494493216.67,11572,13.06,72968.8,6.35,-39.03,-41.23,0,*70
1494493217.9,11573,13.06,72972.5,6.31,-39.35,-41.73,0,*75
1494493219.19,11574,13.06,72964.8,6.31,-39.71,-42.05,0,*70
1494493220.42,11575,13.06,72966.3,6.31,-40.47,-42.75,0,*7D
1494493221.68,11576,13.06,72958.8,6.27,-41.17,-43.55,0,*7E
1494493222.95,11577,13.06,72966.3,6.27,-41.55,-43.81,0,*70
1494493224.18,11578,13.06,72978.8,6.21,-41.73,-44.13,0,*71
1494493225.4,11579,13.06,72976.8,6.19,-42.05,-44.61,0,*7C
1494493226.63,11580,13.06,72962.3,6.15,-39.85,-42.05,0,*76
1494493227.83,11581,13.06,72968.0,6.15,-40.65,-43.41,0,*76
1494493229.03,11582,13.06,72972.3,6.15,-40.65,-42.89,0,*70
1494493230.28,11583,13.06,72980.8,6.13,-40.41,-42.89,0,*71
1494493231.56,11584,13.06,72968.8,6.13,-38.49,-40.79,0,*7C
1494493232.85,11585,13.06,72968.3,6.13,-39.41,-41.67,0,*7A
1494493234.07,11586,13.06,72972.8,6.09,-40.65,-42.89,0,*79
1494493235.29,11587,13.06,72978.8,6.07,-39.85,-42.25,0,*70
1494493236.58,11588,13.06,72978.3,6.05,-39.79,-42.31,0,*7B
1494493237.87,11589,13.06,72978.0,6.05,-40.59,-42.95,0,*78
1494493239.12,11590,13.06,72982.5,6.05,-40.79,-43.15,0,*7B
1494493240.33,11591,13.06,72976.8,6.03,-39.85,-41.99,0,*77
1494493241.58,11592,13.06,72976.3,6.01,-40.59,-42.89,0,*7B
1494493242.84,11593,13.06,72978.8,6.01,-41.67,-44.07,0,*76
1494493244.12,11594,13.06,72976.3,5.97,-41.93,-44.33,0,*71
1494493245.36,11595,13.06,72980.5,5.95,-40.15,-42.31,0,*79
1494493246.59,11596,13.06,72978.3,5.95,-39.23,-41.49,0,*7D
1494493247.83,11597,13.06,72982.0,5.95,-40.09,-42.51,0,*70
1494493249.07,11598,13.06,72982.5,5.95,-38.23,-40.53,0,*78
1494493250.31,11599,13.06,72982.0,5.95,-38.97,-40.97,0,*7E
1494493251.52,11600,13.06,72982.5,5.95,-38.61,-40.73,0,*7E
1494493252.76,11601,13.06,72984.0,5.95,-37.21,-39.09,0,*77
1494493254.02,11602,13.06,72984.8,5.95,-37.99,-40.29,0,*7B
1494493255.26,11603,13.06,72980.0,5.99,-39.15,-41.29,0,*7D
1494493256.47,11604,13.06,72984.5,5.99,-37.87,-39.91,0,*73
1494493257.73,11605,13.06,72986.8,5.99,-37.93,-40.09,0,*78
1494493258.94,11606,13.06,72978.8,5.99,-38.17,-40.47,0,*72
1494493260.2,11607,13.06,72976.8,5.97,-38.91,-41.11,0,*71
1494493261.45,11608,13.06,72978.5,5.97,-37.99,-40.15,0,*7C
1494493262.69,11609,13.06,72982.5,5.99,-37.39,-39.65,0,*70
1494493263.92,11610,13.06,72984.0,5.99,-37.15,-39.15,0,*71
1494493265.13,11611,13.06,72980.8,5.99,-35.71,-37.87,0,*75
1494493266.39,11612,13.06,72988.3,6.01,-39.41,-41.87,0,*7A
1494493267.65,11613,13.06,72986.3,6.01,-39.85,-42.19,0,*77
1494493268.93,11614,13.06,72984.8,6.01,-40.85,-43.21,0,*74
1494493270.18,11615,13.06,72986.5,5.97,-42.31,-44.41,0,*75
1494493271.44,11616,13.06,72990.0,5.93,-41.73,-43.81,0,*7C
1494493272.69,11617,13.06,72990.5,5.93,-40.21,-42.75,0,*71
1494493273.96,11618,13.06,72976.0,5.93,-37.87,-39.97,0,*72
1494493275.17,11619,13.06,72974.8,5.95,-37.03,-39.09,0,*7E
1494493276.4,11620,13.06,72974.8,5.95,-37.09,-38.97,0,*78
1494493277.66,11621,13.06,72976.3,5.97,-37.21,-39.09,0,*77
1494493278.92,11622,13.06,72976.5,5.97,-36.07,-37.81,0,*7F
1494493280.15,11623,13.06,72974.5,6.01,-36.19,-38.05,0,*7E
1494493281.4,11624,13.06,72972.3,6.03,-35.41,-37.09,0,*76
1494493282.62,11625,13.06,72968.5,6.05,-35.71,-37.45,0,*7A
1494493283.85,11626,13.06,72972.3,6.07,-36.19,-37.93,0,*7D
1494493285.09,11627,13.06,72974.8,6.07,-36.07,-37.93,0,*73
1494493286.32,11628,13.06,72976.5,6.09,-35.17,-37.15,0,*7E
1494493287.53,11629,13.06,72976.5,6.15,-33.95,-35.77,0,*78
1494493288.8,11630,13.06,72974.0,6.17,-34.95,-36.73,0,*72
1494493290.03,11631,13.06,72976.5,6.19,-33.89,-35.71,0,*76
1494493291.31,11632,13.06,72972.3,6.23,-33.77,-35.65,0,*78
1494493292.53,11633,13.06,72974.5,6.29,-33.89,-35.59,0,*7D
1494493293.73,11634,13.06,72978.3,6.29,-33.95,-35.71,0,*7D
1494493294.98,11635,13.06,72978.0,6.37,-34.19,-35.65,0,*75
1494493296.21,11636,13.06,72978.0,6.35,-33.55,-35.29,0,*73
1494493297.44,11637,13.06,72978.3,6.39,-33.37,-35.17,0,*77
1494493298.67,11638,13.06,72980.8,6.43,-33.83,-35.71,0,*7A
1494493299.9,11639,13.06,72976.8,6.43,-34.25,-36.31,0,*77
1494493301.13,11640,13.06,72976.8,6.45,-35.07,-37.15,0,*79
1494493302.35,11641,13.06,72980.5,6.47,-37.57,-39.91,0,*7F
1494493303.58,11642,13.06,72976.3,6.45,-36.73,-38.91,0,*78
1494493304.8,11643,13.06,72976.8,6.45,-36.55,-38.67,0,*74
1494493306.03,11644,13.06,72978.0,6.45,-36.61,-38.85,0,*78
1494493307.28,11645,13.06,72978.3,6.45,-37.09,-39.29,0,*71
1494493308.48,11646,13.06,72982.5,6.45,-36.73,-38.85,0,*79
1494493309.75,11647,13.06,72980.8,6.47,-35.41,-37.39,0,*70
1494493311.03,11648,13.06,72982.0,6.47,-34.19,-36.25,0,*7F
1494493312.29,11649,13.06,72976.8,6.47,-34.35,-36.43,0,*70
1494493313.52,11650,13.06,72976.0,6.51,-34.41,-36.31,0,*79
1494493314.74,11651,13.06,72976.5,6.51,-35.71,-37.75,0,*7B
1494493316.02,11652,13.06,72978.8,6.51,-34.35,-36.13,0,*78
1494493317.25,11653,13.06,72984.5,6.59,-33.03,-34.83,0,*78
1494493318.48,11654,13.06,72986.0,6.59,-34.83,-36.85,0,*74
1494493319.71,11655,13.06,72990.5,6.61,-34.89,-36.97,0,*77
1494493320.96,11656,13.06,72986.0,6.61,-35.17,-37.09,0,*74
1494493322.18,11657,13.06,72988.8,6.61,-34.89,-36.97,0,*75
1494493323.4,11658,13.06,72988.5,6.63,-35.53,-37.57,0,*73
1494493324.66,11659,13.06,72982.8,6.65,-35.77,-37.81,0,*79
1494493325.91,11660,13.06,72982.5,6.65,-35.71,-37.63,0,*79
1494493327.14,11661,13.06,72982.0,6.65,-35.71,-37.57,0,*7F
1494493328.37,11662,13.06,72980.5,6.67,-35.07,-36.97,0,*72
1494493329.61,11663,13.13,72988.5,6.67,-36.01,-37.99,0,*79
1494493330.86,11664,13.06,72988.8,6.67,-35.53,-37.39,0,*70
1494493332.11,11665,13.13,72994.3,6.69,-34.83,-36.97,0,*76
1494493333.34,11666,13.06,72980.0,6.71,-36.73,-38.67,0,*70
1494493334.59,11667,13.06,72974.3,6.71,-36.37,-38.23,0,*71
1494493335.82,11668,13.06,72978.0,6.71,-36.79,-38.85,0,*78
1494493337.04,11669,13.06,72982.0,6.69,-38.05,-40.35,0,*71
1494493338.29,11670,13.06,72984.5,6.67,-40.97,-43.29,0,*7D
1494493339.53,11671,13.06,72984.8,6.67,-38.91,-41.03,0,*7F
1494493340.73,11672,13.13,72986.8,6.63,-38.43,-40.73,0,*71
1494493341.96,11673,13.06,72986.3,6.63,-37.57,-39.59,0,*7C
1494493343.18,11674,13.06,72980.0,6.63,-37.75,-39.97,0,*79
1494493344.42,11675,13.06,72984.8,6.63,-39.15,-41.29,0,*7A
1494493345.67,11676,13.06,72982.0,6.61,-37.45,-39.41,0,*71
1494493346.95,11677,13.06,72978.0,6.61,-38.23,-40.59,0,*78
1494493348.18,11678,13.06,72982.5,6.59,-38.79,-41.17,0,*78
1494493349.42,11679,13.06,72980.5,6.59,-38.29,-40.53,0,*7D
1494493350.65,11680,13.06,72980.3,6.59,-37.81,-39.85,0,*73
1494493351.91,11681,13.06,72972.0,6.59,-39.29,-41.55,0,*7C
1494493353.16,11682,13.06,72974.5,6.53,-38.91,-41.17,0,*71
1494493354.4,11683,13.13,72982.0,6.53,-39.09,-41.29,0,*7D
1494493355.65,11684,13.06,72986.8,6.53,-39.35,-41.55,0,*7E
1494493356.93,11685,13.06,72982.3,6.51,-37.63,-39.71,0,*79
1494493358.19,11686,13.06,72982.8,6.49,-38.79,-40.97,0,*71
1494493359.44,11687,13.06,72980.5,6.47,-38.05,-40.09,0,*72
1494493360.65,11688,13.13,72982.8,6.45,-38.85,-41.03,0,*7C
1494493361.93,11689,13.13,72984.0,6.47,-38.23,-40.09,0,*78
1494493363.16,11690,13.06,72984.3,6.45,-38.49,-40.65,0,*74
1494493364.38,11691,13.13,72990.0,6.45,-38.35,-40.79,0,*73
1494493365.63,11692,13.06,72984.5,6.45,-38.29,-40.09,0,*7A
1494493366.86,11693,13.13,72984.8,6.45,-37.09,-39.09,0,*78
1494493368.09,11694,13.06,72984.8,6.47,-34.71,-36.43,0,*70
1494493369.32,11695,13.06,72982.3,6.47,-35.13,-37.15,0,*76
1494493370.52,11696,13.06,72984.5,6.49,-35.71,-37.57,0,*79
1494493371.77,11697,13.06,72984.5,6.51,-34.41,-36.13,0,*72
1494493373.02,11698,13.13,72986.0,6.57,-35.65,-37.57,0,*7D
1494493374.25,11699,13.06,72984.8,6.57,-34.89,-36.73,0,*78
1494493375.53,11700,13.13,72982.5,6.57,-34.53,-36.37,0,*7E
1494493376.76,11701,13.06,72982.8,6.63,-36.13,-38.35,0,*72
1494493378.01,11702,13.06,72980.3,6.63,-36.91,-39.15,0,*78
1494493379.23,11703,13.06,72982.5,6.59,-37.45,-39.29,0,*77
1494493380.46,11704,13.06,72986.0,6.59,-37.45,-39.59,0,*77
1494493381.71,11705,13.13,72984.3,6.61,-37.51,-39.85,0,*79
1494493382.94,11706,13.06,72980.0,6.59,-38.11,-40.35,0,*7F
1494493384.17,11707,13.06,72976.5,6.59,-37.63,-39.65,0,*7F
1494493385.43,11708,13.06,72980.5,6.59,-37.09,-39.29,0,*74
1494493386.65,11709,13.06,72978.5,6.59,-37.15,-39.29,0,*78
1494493387.88,11710,13.06,72980.5,6.59,-39.41,-41.61,0,*7C
1494493389.11,11711,13.06,72978.3,6.53,-38.61,-40.73,0,*76
1494493390.39,11712,13.06,72976.8,6.53,-37.21,-39.53,0,*72
1494493391.64,11713,13.13,72982.8,6.57,-36.01,-38.11,0,*73
1494493392.89,11714,13.06,72978.0,6.57,-35.59,-37.51,0,*71
1494493394.13,11715,13.06,72980.8,6.59,-34.53,-36.31,0,*72
1494493395.39,11716,13.06,72984.3,6.61,-34.47,-36.37,0,*79
1494493396.66,11717,13.06,72982.5,6.59,-38.49,-40.85,0,*79
1494493397.88,11718,13.13,72982.8,6.61,-36.19,-38.05,0,*71
1494493399.11,11719,13.06,72986.0,6.61,-36.73,-38.61,0,*7E
1494493400.36,11720,13.06,72984.5,6.61,-37.15,-39.15,0,*77
1494493401.61,11721,13.06,72978.8,6.61,-35.41,-37.33,0,*7F
1494493402.83,11722,13.06,72976.0,6.63,-36.07,-37.93,0,*75
1494493404.06,11723,13.13,72982.5,6.65,-35.01,-37.03,0,*7E
1494493405.3,11724,13.06,72976.3,6.67,-36.25,-38.35,0,*74
1494493406.55,11725,13.06,72970.5,6.67,-37.39,-39.53,0,*78
1494493407.8,11726,13.06,72972.5,6.65,-37.21,-39.35,0,*70
1494493409.05,11727,13.13,72976.0,6.65,-39.41,-41.73,0,*74
1494493410.31,11728,13.13,72972.5,6.63,-39.71,-41.81,0,*73
1494493411.54,11729,13.06,72974.5,6.59,-39.85,-42.05,0,*7F
1494493412.77,11730,13.13,72978.5,6.59,-37.99,-40.03,0,*70
1494493414.05,11731,13.06,72974.8,6.57,-37.51,-39.71,0,*70
1494493415.33,11732,13.06,72974.8,6.57,-38.11,-40.41,0,*75
1494493416.58,11733,13.13,72978.5,6.57,-37.93,-40.03,0,*77
1494493417.85,11734,13.13,72982.8,6.53,-36.79,-38.79,0,*73
1494493419.07,11735,13.13,72982.0,6.57,-35.71,-38.05,0,*76
1494493420.35,11736,13.06,72976.3,6.57,-36.79,-38.91,0,*73
1494493421.61,11737,13.06,72978.8,6.57,-36.91,-38.85,0,*71
1494493422.83,11738,13.06,72976.5,6.57,-35.71,-37.75,0,*73
1494493424.07,11739,13.13,72984.0,6.59,-36.55,-38.67,0,*75
1494493425.35,11740,13.06,72980.3,6.61,-37.63,-39.59,0,*78
1494493426.57,11741,13.06,72978.3,6.59,-37.51,-39.47,0,*7C
1494493427.83,11742,13.06,72978.0,6.59,-36.37,-38.49,0,*71
1494493429.05,11743,13.13,72980.3,6.59,-37.15,-39.23,0,*7C
1494493430.28,11744,13.06,72982.5,6.59,-36.97,-39.03,0,*72
1494493431.49,11745,13.13,72984.3,6.59,-38.05,-40.15,0,*7F
1494493432.72,11746,13.13,72988.3,6.59,-37.81,-39.85,0,*78
1494493433.93,11747,13.06,72984.5,6.59,-36.67,-38.61,0,*7B
1494493435.16,11748,13.06,72982.0,6.59,-36.55,-38.49,0,*7F
1494493436.42,11749,13.13,72972.8,6.59,-36.37,-38.29,0,*7C
1494493437.66,11750,13.13,72974.3,6.59,-36.49,-38.43,0,*71
1494493438.91,11751,13.06,72974.8,6.61,-36.19,-38.11,0,*79
1494493440.14,11752,13.06,72980.8,6.59,-36.91,-38.85,0,*7C
1494493441.4,11753,13.06,72980.3,6.59,-37.81,-39.79,0,*7F
1494493442.68,11754,13.13,72980.8,6.61,-35.83,-37.69,0,*7C
1494493443.96,11755,13.06,72982.3,6.61,-35.95,-37.99,0,*75
1494493445.19,11756,13.06,72980.8,6.61,-38.43,-40.53,0,*76
1494493446.47,11757,13.06,72976.8,6.61,-37.09,-39.03,0,*7D
1494493447.7,11758,13.13,72982.5,6.59,-36.31,-38.11,0,*71
1494493448.92,11759,13.06,72980.3,6.61,-35.59,-37.27,0,*7C
1494493450.19,11760,13.06,72976.8,6.61,-36.49,-38.11,0,*7E
1494493451.43,11761,13.06,72978.3,6.61,-35.53,-37.27,0,*7D
1494493452.67,11762,13.06,72976.3,6.65,-34.25,-35.89,0,*7C
1494493453.9,11763,13.13,72978.3,6.67,-34.89,-36.61,0,*7C
1494493455.14,11764,13.06,72976.3,6.67,-34.31,-35.89,0,*7D
1494493456.4,11765,13.13,72982.8,6.69,-35.65,-37.69,0,*7E
1494493457.64,11766,13.13,72982.5,6.67,-37.21,-39.09,0,*79
1494493458.86,11767,13.13,72984.0,6.67,-36.79,-38.73,0,*78
1494493460.12,11768,13.13,72984.5,6.69,-37.81,-39.65,0,*79
1494493461.38,11769,13.06,72982.8,6.69,-36.73,-38.79,0,*78
1494493462.65,11770,13.13,72986.3,6.69,-36.79,-38.79,0,*7A
1494493463.88,11771,13.13,72986.3,6.67,-35.07,-36.85,0,*72
1494493465.12,11772,13.13,72986.3,6.69,-35.41,-37.33,0,*71
1494493466.37,11773,13.13,72986.8,6.69,-35.59,-37.51,0,*7D
1494493467.56,11774,13.13,72988.3,6.71,-35.59,-37.45,0,*76
1494493468.79,11775,13.13,72988.0,6.71,-35.23,-37.15,0,*7F
1494493470.01,11776,13.06,72990.3,6.71,-34.71,-36.67,0,*7E
1494493471.24,11777,13.06,72990.5,6.73,-34.77,-36.73,0,*7E
1494493472.49,11778,13.06,72990.3,6.73,-37.57,-39.71,0,*7D
1494493473.71,11779,13.06,72988.0,6.71,-36.91,-38.97,0,*7C
1494493474.94,11780,13.06,72988.5,6.71,-38.05,-40.21,0,*7B
1494493476.17,11781,13.06,72986.5,6.71,-39.03,-41.41,0,*7A
1494493477.4,11782,13.06,72982.0,6.67,-39.65,-42.05,0,*7D
1494493478.63,11783,13.13,72984.0,6.67,-37.15,-39.29,0,*77
1494493479.85,11784,13.06,72980.5,6.67,-37.39,-39.47,0,*76
1494493481.08,11785,13.06,72976.3,6.65,-34.77,-36.85,0,*7D
1494493482.31,11786,13.06,72982.5,6.67,-34.77,-36.91,0,*79
1494493483.53,11787,13.06,72982.5,6.67,-34.71,-36.73,0,*72
1494493484.78,11788,13.06,72980.0,6.69,-33.21,-35.35,0,*70
1494493486.03,11789,13.13,72978.5,6.71,-33.89,-35.95,0,*70
1494493487.29,11790,13.06,72976.8,6.73,-35.29,-37.39,0,*72
1494493488.51,11791,13.06,72978.8,6.79,-34.71,-36.79,0,*70
1494493489.7,11792,13.13,72980.5,6.79,-35.17,-37.45,0,*7C
1494493490.92,11793,13.13,72980.8,6.79,-35.13,-37.39,0,*72
1494493492.12,11794,13.13,72986.3,6.79,-34.77,-37.03,0,*7F
1494493493.33,11795,13.13,72982.5,6.83,-35.47,-37.75,0,*78
1494493494.55,11796,13.13,72980.5,6.83,-36.31,-38.79,0,*7A
1494493495.79,11797,13.13,72982.0,6.81,-37.15,-39.41,0,*74
1494493497.04,11798,13.13,72982.3,6.81,-35.47,-37.69,0,*7A
1494493498.24,11799,13.06,72978.3,6.83,-36.01,-38.43,0,*7F
1494493499.51,11800,13.13,72982.3,6.81,-36.61,-38.67,0,*72
1494493500.76,11801,13.06,72980.0,6.81,-34.13,-36.13,0,*79
1494493502.0,11802,13.13,72982.5,6.83,-34.07,-35.95,0,*70
1494493503.23,11803,13.06,72982.3,6.85,-35.17,-37.09,0,*70
1494493504.45,11804,13.13,72984.8,6.87,-35.13,-37.03,0,*7B
1494493505.67,11805,13.06,72982.5,6.87,-36.01,-38.05,0,*73
1494493506.88,11806,13.13,72984.8,6.89,-36.07,-38.35,0,*7B
1494493508.13,11807,13.06,72980.0,6.87,-35.95,-38.17,0,*7C
1494493509.41,11808,13.13,72982.8,6.87,-36.13,-38.23,0,*79
1494493510.64,11809,13.06,72982.0,6.89,-35.07,-37.03,0,*7D
1494493511.89,11810,13.13,72982.5,6.89,-35.53,-37.63,0,*72
1494493513.14,11811,13.13,72984.8,6.91,-35.41,-37.33,0,*7C
1494493514.37,11812,13.06,72982.0,6.89,-35.71,-37.93,0,*7F
1494493515.62,11813,13.06,72982.3,6.91,-37.69,-40.03,0,*75
1494493516.81,11814,13.13,72980.5,6.89,-37.03,-39.35,0,*7C
1494493518.04,11815,13.13,72984.5,6.89,-36.85,-39.29,0,*7F
1494493519.3,11816,13.13,72982.0,6.87,-37.81,-39.91,0,*74
1494493520.58,11817,13.13,72982.3,6.87,-37.21,-39.53,0,*71
1494493521.83,11818,13.13,72978.0,6.87,-37.57,-39.71,0,*7F
1494493523.03,11819,13.13,72980.0,6.85,-38.05,-40.35,0,*7A
1494493524.31,11820,13.13,72976.0,6.87,-37.69,-40.09,0,*78
1494493525.56,11821,13.06,72976.8,6.83,-39.03,-41.23,0,*76
1494493526.81,11822,13.13,72978.0,6.81,-38.11,-40.15,0,*71
1494493528.08,11823,13.13,72980.3,6.81,-35.83,-38.11,0,*7D
1494493529.3,11824,13.13,72984.5,6.83,-36.01,-37.93,0,*74
1494493530.53,11825,13.13,72982.0,6.83,-36.55,-38.49,0,*7C
1494493531.76,11826,13.13,72986.5,6.83,-36.91,-39.09,0,*72
1494493532.95,11827,13.13,72986.3,6.83,-37.33,-39.47,0,*70
1494493534.18,11828,13.13,72990.8,6.83,-36.55,-38.67,0,*7D
1494493535.44,11829,13.13,72982.0,6.83,-39.03,-41.35,0,*79
1494493536.69,11830,13.13,72986.3,6.81,-38.61,-40.85,0,*7C
1494493537.94,11831,13.13,72982.8,6.81,-38.29,-40.47,0,*7F
1494493539.16,11832,13.06,72980.0,6.79,-38.11,-40.35,0,*75
1494493540.36,11833,13.13,72980.3,6.75,-38.43,-40.53,0,*7F
1494493541.59,11834,13.06,72976.3,6.75,-39.03,-41.29,0,*71
1494493542.82,11835,13.13,72976.3,6.75,-38.35,-40.59,0,*72
1494493544.07,11836,13.13,72978.5,6.75,-39.03,-41.81,0,*71
1494493545.28,11837,13.13,72976.8,6.71,-39.09,-41.03,0,*74
1494493546.51,11838,13.13,72976.0,6.71,-37.63,-39.85,0,*78
1494493547.78,11839,13.13,72974.8,6.73,-37.99,-39.97,0,*7D
1494493549.02,11840,13.06,72976.3,6.71,-38.85,-40.97,0,*7D
1494493550.28,11841,13.06,72976.5,6.69,-39.23,-41.17,0,*71
1494493551.53,11842,13.06,72982.3,6.69,-37.81,-39.85,0,*70
1494493552.76,11843,13.13,72982.0,6.67,-39.53,-41.87,0,*73
1494493553.96,11844,13.13,72986.5,6.67,-38.35,-40.47,0,*78
1494493555.21,11845,13.13,72986.8,6.67,-36.79,-38.91,0,*7B
1494493556.44,11846,13.13,72978.8,6.67,-37.93,-40.03,0,*79
1494493557.69,11847,13.13,72982.5,6.67,-37.69,-39.53,0,*76
1494493558.93,11848,13.13,72982.0,6.69,-35.35,-37.33,0,*74
1494493560.19,11849,13.06,72980.0,6.67,-38.11,-40.29,0,*7B
1494493561.44,11850,13.13,72984.5,6.69,-35.01,-36.79,0,*75
1494493562.65,11851,13.06,72976.5,6.71,-35.41,-37.45,0,*77
1494493563.88,11852,13.06,72974.0,6.73,-36.07,-38.05,0,*7C
1494493565.12,11853,13.13,72970.8,6.73,-36.61,-38.73,0,*7C
1494493566.38,11854,13.13,72978.8,6.73,-35.77,-37.63,0,*71
1494493567.58,11855,13.13,72978.8,6.79,-36.07,-38.17,0,*72
1494493568.83,11856,13.13,72978.5,6.75,-37.21,-39.23,0,*7E
1494493570.03,11857,13.13,72978.3,6.75,-37.03,-39.09,0,*77
1494493571.25,11858,13.13,72976.0,6.79,-35.23,-36.97,0,*7C
1494493572.5,11859,13.13,72976.3,6.79,-33.77,-35.35,0,*71
1494493573.76,11860,13.13,72978.0,6.83,-33.73,-35.41,0,*79
1494493574.99,11861,13.13,72980.3,6.85,-32.75,-34.47,0,*7E
1494493576.22,11862,13.13,72978.3,6.87,-36.55,-38.43,0,*71
1494493577.43,11863,13.13,72976.8,6.89,-34.71,-36.43,0,*74
1494493578.65,11864,13.13,72972.0,6.89,-35.41,-37.33,0,*77
1494493579.88,11865,13.13,72974.5,6.89,-37.99,-40.15,0,*75
1494493581.11,11866,13.13,72970.5,6.89,-38.97,-41.23,0,*73
1494493582.34,11867,13.13,72966.5,6.89,-39.65,-41.93,0,*75
1494493583.57,11868,13.13,72968.0,6.85,-39.59,-41.73,0,*77
1494493584.84,11869,13.13,72970.3,6.81,-40.21,-42.57,0,*76
1494493586.06,11870,13.13,72968.0,6.75,-41.17,-43.55,0,*72
1494493587.28,11871,13.13,72968.3,6.75,-39.97,-42.13,0,*77
1494493588.52,11872,13.13,72968.3,6.71,-39.59,-41.87,0,*7C
1494493589.75,11873,13.13,72968.3,6.71,-39.85,-42.05,0,*75
1494493590.99,11874,13.13,72970.0,6.67,-39.15,-41.61,0,*7D
1494493592.2,11875,13.06,72974.8,6.67,-36.55,-38.55,0,*7E
1494493593.44,11876,13.13,72980.5,6.67,-39.65,-42.31,0,*7E
1494493594.65,11877,13.13,72972.0,6.67,-39.09,-41.41,0,*71
1494493595.88,11878,13.13,72972.0,6.65,-38.73,-40.91,0,*7C
1494493597.14,11879,13.13,72980.8,6.65,-38.61,-40.97,0,*78
1494493598.39,11880,13.13,72980.5,6.65,-36.67,-38.79,0,*79
1494493599.65,11881,13.13,72980.3,6.65,-36.25,-38.35,0,*76
1494493600.85,11882,13.13,72978.0,6.67,-34.89,-36.85,0,*76
1494493602.08,11883,13.13,72976.3,6.71,-33.95,-35.83,0,*7F
1494493603.31,11884,13.13,72980.8,6.71,-35.77,-37.81,0,*72
1494493604.54,11885,13.13,72980.0,6.73,-36.31,-38.05,0,*73
1494493605.79,11886,13.13,72976.8,6.73,-34.83,-36.85,0,*7D
1494493607.03,11887,13.13,72986.8,6.79,-35.53,-37.39,0,*7C
1494493608.24,11888,13.13,72986.0,6.79,-37.39,-39.47,0,*7A
1494493609.46,11889,13.13,72984.3,6.79,-36.01,-38.11,0,*73
1494493610.68,11890,13.13,72982.3,6.79,-39.53,-41.87,0,*72
1494493611.9,11891,13.13,72978.0,6.75,-40.03,-42.45,0,*79
1494493613.15,11892,13.13,72968.5,6.73,-40.41,-43.15,0,*7E
1494493614.4,11893,13.13,72968.3,6.69,-40.59,-43.01,0,*78
1494493615.61,11894,13.13,72972.5,6.67,-41.41,-44.07,0,*78
1494493616.87,11895,13.13,72970.8,6.65,-43.61,-46.07,0,*79
1494493618.1,11896,13.13,72976.3,6.59,-43.29,-45.95,0,*71
1494493619.33,11897,13.13,72974.3,6.53,-42.89,-45.41,0,*78
1494493620.54,11898,13.13,72976.8,6.49,-41.99,-44.67,0,*7B
1494493621.75,11899,13.13,72978.8,6.49,-42.25,-44.87,0,*70
1494493623.0,11900,13.13,72978.0,6.47,-42.45,-44.79,0,*78
1494493624.22,11901,13.13,72978.3,6.43,-42.13,-44.41,0,*75
1494493625.45,11902,13.13,72982.3,6.41,-43.09,-45.67,0,*7B
1494493626.69,11903,13.13,72980.0,6.37,-40.79,-43.21,0,*7B
1494493627.95,11904,13.13,72982.5,6.35,-40.29,-42.63,0,*7C
1494493629.18,11905,13.13,72984.8,6.31,-39.91,-42.13,0,*73
1494493630.46,11906,13.13,72978.8,6.35,-38.67,-40.85,0,*71
1494493631.69,11907,13.13,72974.3,6.31,-38.97,-41.29,0,*7C
1494493632.94,11908,13.13,72968.0,6.35,-40.59,-42.89,0,*73
1494493634.21,11909,13.13,72972.8,6.31,-39.97,-42.05,0,*7E
1494493635.44,11910,13.13,72972.3,6.31,-38.35,-40.53,0,*7E
1494493636.72,11911,13.13,72978.8,6.31,-39.29,-41.67,0,*75
1494493638.01,11912,13.13,72978.5,6.31,-40.09,-42.31,0,*7A
1494493639.27,11913,13.13,72980.0,6.29,-39.41,-41.55,0,*71
1494493640.5,11914,13.13,72978.3,6.29,-38.61,-40.59,0,*78
1494493641.75,11915,13.13,72976.8,6.29,-37.63,-39.79,0,*78
1494493642.98,11916,13.13,72978.3,6.29,-38.61,-40.79,0,*78
1494493644.24,11917,13.13,72978.0,6.31,-36.85,-38.91,0,*7D
1494493645.46,11918,13.13,72978.5,6.35,-35.29,-37.27,0,*71
1494493646.68,11919,13.13,72982.5,6.37,-37.33,-39.41,0,*75
1494493647.93,11920,13.13,72982.0,6.39,-36.67,-38.67,0,*74
1494493649.19,11921,13.13,72980.3,6.39,-37.21,-39.35,0,*70
1494493650.41,11922,13.13,72980.0,6.39,-36.19,-38.17,0,*78
1494493651.64,11923,13.13,72980.5,6.43,-35.29,-37.27,0,*78
1494493652.89,11924,13.13,72990.3,6.43,-36.25,-38.35,0,*7C
1494493654.13,11925,13.13,72992.3,6.47,-34.89,-36.55,0,*75
1494493655.38,11926,13.13,72988.8,6.47,-33.67,-35.41,0,*77
1494493656.64,11927,13.13,72992.5,6.51,-33.49,-35.47,0,*7B
1494493657.89,11928,13.06,72986.3,6.57,-36.19,-38.11,0,*7C
1494493659.12,11929,13.13,72986.3,6.59,-36.49,-38.43,0,*71
1494493660.37,11930,13.13,72980.3,6.59,-36.91,-39.03,0,*79
1494493661.61,11931,13.13,72976.8,6.59,-39.47,-41.81,0,*79
1494493662.86,11932,13.13,72970.0,6.53,-41.67,-43.95,0,*7A
1494493664.09,11933,13.13,72970.5,6.49,-41.23,-43.35,0,*7A
1494493665.3,11934,13.13,72978.0,6.49,-39.65,-41.61,0,*73
1494493666.51,11935,13.13,72986.0,6.45,-37.87,-39.65,0,*77
1494493667.7,11936,13.13,72980.0,6.49,-36.31,-38.05,0,*73
1494493668.94,11937,13.13,72984.8,6.49,-34.83,-36.55,0,*72
1494493670.17,11938,13.13,72990.0,6.51,-36.97,-38.97,0,*73
1494493671.45,11939,13.13,72990.5,6.51,-36.49,-38.23,0,*7E
1494493672.75,11940,13.13,72986.5,6.51,-39.79,-41.67,0,*72
1494493674.01,11941,13.13,72980.5,6.51,-36.43,-37.99,0,*75
1494493675.26,11942,13.13,72986.0,6.51,-36.07,-37.93,0,*7C
1494493676.54,11943,13.13,72984.0,6.53,-37.63,-40.09,0,*7F
1494493677.76,11944,13.13,72986.0,6.53,-40.35,-41.99,0,*73
1494493679.01,11945,13.13,72976.8,6.49,-37.51,-39.23,0,*75
1494493680.24,11946,13.13,72978.5,6.51,-36.31,-38.17,0,*7E
1494493681.51,11947,13.13,72980.8,6.51,-36.13,-37.81,0,*7F
1494493682.77,11948,13.13,72976.0,6.51,-37.57,-39.71,0,*70
1494493684.05,11949,13.13,72980.5,6.51,-37.99,-40.09,0,*72
1494493685.3,11950,13.13,72982.0,6.51,-37.27,-39.41,0,*7D
1494493686.51,11951,13.13,72976.3,6.53,-37.27,-39.35,0,*7D
1494493687.74,11952,13.13,72980.3,6.53,-38.43,-40.73,0,*7F
1494493688.97,11953,13.13,72978.0,6.51,-38.43,-40.65,0,*7B
1494493690.2,11954,13.13,72976.8,6.49,-39.23,-41.17,0,*76
1494493691.45,11955,13.13,72972.8,6.47,-36.25,-38.35,0,*7E
1494493692.7,11956,13.13,72980.3,6.51,-35.35,-37.45,0,*70
1494493693.98,11957,13.13,72976.3,6.51,-37.09,-39.29,0,*78
1494493695.23,11958,13.13,72974.8,6.51,-36.79,-39.09,0,*73
1494493696.46,11959,13.13,72982.5,6.51,-38.17,-40.65,0,*70
1494493697.71,11960,13.13,72982.8,6.49,-39.41,-42.05,0,*75
1494493698.95,11961,13.13,72976.5,6.49,-40.21,-42.57,0,*7B
1494493700.19,11962,13.13,72982.8,6.45,-40.85,-43.29,0,*72
1494493701.47,11963,13.13,72982.0,6.43,-39.53,-42.05,0,*7F
1494493702.69,11964,13.13,72984.0,6.41,-37.93,-40.73,0,*7B
1494493703.9,11965,13.13,72986.8,6.41,-38.61,-41.11,0,*7D